STARLINK-1585, 46117

Orbit data source: Space-Track

STARLINK-1585, 46117 is a payload satellite owned by SpaceX/Seattle (US) in LEO that was launched on Tue, 18 Aug 2020 UTC via an FALCON 9 launch vehicle from the Air Force Eastern Test Range (AFETR). Payload-class satellites include a variety of spacecraft equipped with specific instruments for various scientific and technological missions. These include communications satellites like Starlink; space stations such as the ISS; scientific satellites like the Hubble; Earth observation satellites from companies like Planet Labs, Umbra, and HawkEye 360; GPS; miniature CubeSats for education and research; and military/defense satellites.

Loading next visibility...
Identifier
46117, 2020-057A
Orbit
LEO
Country
Flag of USUS
Related business
Manufacturer
SpaceX/Seattle
Mission
Partially operational Commercial Communications
Bus & Motor
STARLINK, Unknown motor
Mass
260 kg wet, ~248 kg dry
Launch date (UTC)
2020-08-18 (5 years ago)
Launch vehicle
FALCON 9
Launch site
Air Force Eastern Test Range (AFETR)
Object type
Payload
Rocket body
Debris
Shape & HBR
Box + 1 Pan, 10.1 m
Radar Cross Section
13.562 m², Large (>1 m²)

Expand to show TLE details & history
Last TLE update: 5 hours ago

TLE from 5 hours ago
0 STARLINK-1585
1 46117U 20057A   26036.58334490  .00292462  00000-0  25632-2 0  9991
2 46117  53.0456  47.1631 0006774 342.7428 232.9762 15.67409924  5980
Epoch: 2026-02-05T14:00Z
TLE epoch observation values (Epoch: 2026-02-05T14:00:00.999Z)
Latitude
-27.96975°
Longitude
-95.16739°
Altitude
377.427 km
Speed
7.682 km/s
True Right ascension
16h 42m 16s
True Declination
-27° 49' 10"
Sunlit
Object was in daylight at epoch
Visualization orbit readout
Latitude
Unknown
Longitude
Unknown
Altitude
Unknown
Speed
Unknown
Apparent Right ascension
Unknown
Apparent Declination
Unknown
Sunlit
N/A
Visualization observer readout
Local Sidereal Time
21:09:29
Azimuth
Unknown
Elevation
Unknown
Doppler factor
Unknown
Orbital elements
Apogee altitude
371.165 km
Perigee altitude
362.027 km
Semi-major axis
6,744.733 km
Eccentricity
0.00068
Inclination
53.0456°
RAAN
47.1631°
Arg. of periapsis
342.7428°
True anomaly
232.91426°
Mean anomaly
232.9762°
Eccentric anomaly
232.94523°
Mean motion
3.91829 °/min
Orbital period
91.88 mins
BSTAR
0.0025632
Loading maneuver chart data...
Computing Atmospheric mass density...

Documentation

Showing up to 5 results
|